Location: Izdebno
(52.6670°N, 16.2170°E)
Time: 17:52:41
(UTC+02:00)

SR - Pass Details

Date: 03 March 2024
Orbit: 577 x 862 km, 66.7° (Epoch: 21 April)

Event Time Altitude Azimuth Distance (km) Brightness Sun altitude
Rises 16:50:00 0° 281° (W) 3,401 ? 6.3°
Reaches altitude 10° 16:53:10 10° 298° (WNW) 2,430 ? 5.8°
Maximum altitude 16:57:17 20° 345° (NNW) 1,755 ? 5.2°
Drops below altitude 10° 17:01:13 10° 33° (NNE) 2,305 ? 4.6°
Sets 17:04:09 0° 50° (NE) 3,174 ? 4.2°
